Sharm El Sheikh, Egypt

10:47 AM EET on August 20, 2017 (GMT +0200)
Sharm El Sheikh

Weather History for HESH - March, 2013

Change the Weather History Date:

Tuesday, March 12, 2013

  Actual Average Record
Temperature  
Mean Temperature 80 °F -  
Max Temperature 96 °F 81 °F - ()
Min Temperature 64 °F 64 °F - ()
Cooling Degree Days 15    
Growing Degree Days 30 (Base 50)    
Moisture  
Dew Point 36 °F    
Average Humidity 25    
Maximum Humidity 68    
Minimum Humidity 7    
Precipitation  
Precipitation 0.00 in 0.00 in - ()
Sea Level Pressure  
Sea Level Pressure 29.94 in    
Wind  
Wind Speed 3 mph ()    
Max Wind Speed 8 mph    
Max Gust Speed -    
Visibility 4.3 miles    
Events      
T = Trace of Precipitation, MM = Missing Value Source: Averaged Metar Reports

Daily Weather History Graph

Daily Weather History Graph

Search for Another Location

Airport or City:

Trip Planner

Search our weather history database for the weather conditions in past years. The results will help you decide how hot, cold, wet, or windy it might be!

Date:

Astronomy

Mar. 12, 2013 Rise Set
Actual Time 5:55 AM EET 5:49 PM EET
Civil Twilight 5:32 AM EET 6:12 PM EET
Nautical Twilight 5:04 AM EET 6:39 PM EET
Astronomical Twilight 4:37 AM EET 7:07 PM EET
Moon 5:56 AM EET (3/12) 6:33 PM EET (3/12)
Length of Visible Light 12h 40m
Length of Day
11h 53m
New Moon, 0% of the Moon is Illuminated
Mar 12
New Moon
Mar 19
First Quarter
Mar 27
Full
Apr 3
Last Quarter
Apr 10
New

Hourly Weather History & Observations

Time (EET) Temp. Dew Point Humidity Pressure Visibility Wind Dir Wind Speed Gust Speed Precip Events Conditions
12:00 AM 69.8 °F 39.2 °F 33% 29.98 in - Variable 2.3 mph - N/A   Clear
1:00 AM 68.0 °F 41.0 °F 37% 29.95 in - Variable 2.3 mph - N/A   Clear
2:00 AM 68.0 °F 44.6 °F 43% 29.95 in - Variable 2.3 mph - N/A   Clear
3:00 AM 66.2 °F 53.6 °F 64% 29.95 in - Variable 2.3 mph - N/A   Clear
4:00 AM 64.4 °F 48.2 °F 56% 29.95 in - Calm Calm - N/A   Clear
5:00 AM 66.2 °F 55.4 °F 68% 29.95 in - NW 6.9 mph - N/A   Clear
6:00 AM 68.0 °F 48.2 °F 49% 29.95 in - NNE 4.6 mph - N/A   Clear
7:00 AM 71.6 °F 39.2 °F 31% 29.98 in - NNE 6.9 mph - N/A   Clear
8:00 AM 78.8 °F 37.4 °F 23% 29.98 in - NNE 6.9 mph - N/A   Clear
9:00 AM 84.2 °F 35.6 °F 18% 30.01 in - NNE 6.9 mph - N/A   Clear
10:00 AM 89.6 °F 37.4 °F 16% 30.01 in - NNE 4.6 mph - N/A   Clear
11:00 AM 95.0 °F 35.6 °F 12% 29.98 in - Variable 3.5 mph - N/A   Clear
12:00 PM 96.8 °F 33.8 °F 11% 29.98 in - SE 3.5 mph - N/A   Clear
1:00 PM 96.8 °F 30.2 °F 10% 29.95 in - SSE 6.9 mph - N/A   Clear
2:00 PM 93.2 °F 21.2 °F 7% 29.92 in - SSE 8.1 mph - N/A   Clear
3:00 PM 93.2 °F 32.0 °F 11% 29.89 in - South 6.9 mph - N/A   Clear
4:00 PM 93.2 °F 30.2 °F 11% 29.89 in - SSW 5.8 mph - N/A   Clear
5:00 PM 91.4 °F 26.6 °F 10% 29.89 in - SSW 4.6 mph - N/A   Clear
6:00 PM 86.0 °F 24.8 °F 11% 29.86 in 5.0 mi SW 4.6 mph - N/A   Unknown
7:00 PM 84.2 °F 26.6 °F 12% 29.89 in 3.7 mi SW 4.6 mph - N/A   Unknown
8:00 PM 78.8 °F 24.8 °F 14% 29.89 in - WSW 3.5 mph - N/A   Clear
9:00 PM 77.0 °F 24.8 °F 14% 29.89 in - WSW 3.5 mph - N/A   Clear
10:00 PM 77.0 °F 23.0 °F 13% 29.92 in - SSW 2.3 mph - N/A   Clear
11:00 PM 71.6 °F 41.0 °F 33% 29.92 in - Calm Calm - N/A   Clear